Flag for Germany Weather past 2 weeks in Merseburg, Saxony-Anhalt, Germany

Now
19 °F

Partly sunny.


Feels Like: 8 °F
Forecast: 21 / 31 °F
Wind: 10 mph from North

Location: Leipzig-Schkeuditz

Current Time: Dec 28, 2014 at 9:56:16 AM

Latest Report: Dec 28, 2014 at 9:20 AM


Visibility: N/A

Pressure: 30.12 "Hg

Humidity: 86%

Dew point: 16 °F

Location of MerseburgLocation

Historic Weather in Merseburg — Graph

°F

Merseburg temperature yesterday

Maximum temperature yesterday: 30 °F (at 12:20 PM)
Minimum temperature yesterday: 21 °F (at 11:50 PM)
Average temperature yesterday: 26 °F

Past Weeks' High & Low Weather Summary

 TemperatureHumidityPressure
High54 °F (Dec 18, 9:50 PM)100% (Dec 13, 8:50 PM)30.33 "Hg (Dec 13, 8:50 PM)
Low18 °F (Dec 28, 6:20 AM)65% (Dec 26, 1:50 PM)29.65 "Hg (Dec 17, 2:50 PM)
Average41 °F87%29.95 "Hg
* Reported Dec 13 8:20 AM — Dec 28 8:50 AM, Merseburg, Weather by CustomWeather, © 2014

Note: Actual official high and low records may vary slightly from our data, if they occured in-between our weather recording intervals... More about our weather records

Advertising

Merseburg weather history for previous 24 hours

 ConditionsComfort  
Time TempWeatherWind HumidityBarometerVisibility
8:50 AM
Dec 28
19 °FPartly sunny.7 mph86%30.12 "HgN/A
8:20 AM18 °FPartly sunny.7 mph93%30.09 "HgN/A
7:50 AM18 °FPassing clouds.10 mph93%30.07 "HgN/A
7:20 AM18 °FPassing clouds.13 mph93%30.07 "HgN/A
6:50 AM19 °FPassing clouds.12 mph86%30.04 "HgN/A
6:20 AM18 °FPassing clouds.14 mph93%30.01 "HgN/A
5:50 AM19 °FPassing clouds.12 mph86%29.98 "HgN/A
5:20 AM19 °FPassing clouds.15 mph86%29.98 "HgN/A
4:20 AM19 °FPassing clouds.16 mph86%29.92 "HgN/A
3:50 AM19 °FPassing clouds.15 mph86%29.92 "HgN/A
3:20 AM19 °FPassing clouds.18 mph86%29.89 "HgN/A
2:50 AM19 °FPassing clouds.15 mph86%29.89 "HgN/A
2:20 AM19 °FPassing clouds.17 mph86%29.86 "HgN/A
1:50 AM19 °FPassing clouds.15 mph86%29.86 "HgN/A
1:20 AM21 °FPassing clouds.18 mph86%29.86 "HgN/A
12:50 AM21 °FPassing clouds.16 mph86%29.83 "HgN/A
12:20 AM21 °FPassing clouds.18 mph86%29.83 "HgN/A
11:50 PM
Dec 27
21 °FPassing clouds.16 mph93%29.80 "HgN/A
11:20 PM23 °FPassing clouds.17 mph86%29.80 "HgN/A
10:50 PM23 °FPassing clouds.17 mph93%29.77 "HgN/A
10:20 PM25 °FPassing clouds.16 mph86%29.77 "HgN/A
9:50 PM25 °FPassing clouds.17 mph93%29.74 "HgN/A
9:20 PM25 °FPassing clouds.14 mph93%29.74 "HgN/A
8:50 PM25 °FPassing clouds.17 mph93%29.74 "HgN/A
8:20 PM27 °FClear.20 mph86%29.71 "Hg10 mi
7:50 PM27 °FClear.20 mph86%29.71 "Hg10 mi
7:20 PM27 °FClear.18 mph86%29.71 "Hg10 mi
6:50 PM27 °FClear.16 mph86%29.71 "Hg10 mi
6:20 PM27 °FClear.16 mph86%29.71 "Hg10 mi
5:50 PM27 °FClear.18 mph86%29.71 "Hg10 mi
5:20 PM27 °FClear.18 mph86%29.68 "Hg10 mi
4:50 PM27 °FClear.16 mph86%29.68 "Hg10 mi
4:20 PM28 °FClear.17 mph80%29.68 "Hg10 mi
3:50 PM28 °FSunny.15 mph80%29.68 "Hg10 mi
3:20 PM28 °FSunny.15 mph80%29.68 "Hg10 mi
2:50 PM28 °FSunny.14 mph86%29.71 "Hg10 mi
2:20 PM30 °FSunny.14 mph86%29.71 "Hg10 mi
1:50 PM30 °FSunny.13 mph86%29.71 "Hg10 mi
1:20 PM30 °FSunny.15 mph80%29.71 "Hg10 mi
12:50 PM30 °FSunny.15 mph80%29.74 "Hg10 mi
12:20 PM30 °FSunny.15 mph80%29.74 "Hg10 mi
11:50 AM28 °FSunny.14 mph80%29.77 "Hg10 mi
11:20 AM28 °FSunny.14 mph80%29.77 "Hg10 mi
10:50 AM28 °FSunny.12 mph80%29.80 "Hg10 mi
10:20 AM27 °FSunny.12 mph86%29.80 "Hg10 mi
9:50 AM27 °FSunny.10 mph86%29.80 "Hg10 mi
9:20 AM25 °FSunny.12 mph86%29.83 "Hg10 mi
Weather by CustomWeather, © 2014

See weather overviewHow to use our weather pages